sat.trackr.live / text

‹ back to catalog

STARLINK-2748

NORAD 48694 · 2021-044BJ

PAYLOAD ACTIVE UNKNOWN

§ Identity

Operator
Country
US
Launch date
2021-05-26
Launch site
AFETR
Launch vehicle
Mass (kg)
RCS (m²)

Purposes: comms

External: N2YO · Heavens-Above · Gunter

§ Orbital elements

Epoch: 2026-05-25T02:40:32.943360Z

Period
94.01 min
Inclination
53.1594°
Eccentricity
0.0001521
Mean motion
15.31703479 rev/d
Perigee alt
469.7 km
Apogee alt
471.8 km
Semi-major
6,848.9 km
B*
5.1745e-6
RAAN
83.0416°
Arg perigee
88.3304°
Mean anomaly
271.7871°
Rev number
27,602

§ Raw data

STARLINK-27481 48694U 21044BJ  26145.11149240 -.00000205  00000+0  51745-5 0  99962 48694  53.1594  83.0416 0001521  88.3304 271.7871 15.31703479276027

JSON: /api/v1/satellites/48694 · /tle

For live sub-satellite position, see the globe view (requires WebGL).

§ Visibility from observer

Set your observer location to see the next 7 days of passes ≥ 10°. The values pass through the URL so the page stays shareable.

No JS? Fill the form by hand. The geolocation button needs JavaScript.